Location: Misciano
(43.5000°N, 11.9500°E)
Time: 16:36:13
(UTC+00:00)

Cosmos 2221 Rocket - Pass Details

Date: 13 August 2020
Orbit: 621 x 647 km, 82.5° (Epoch: 19 September)

Event Time Altitude Azimuth Distance (km) Brightness Sun altitude
Rises 21:15:34 0° 353° (N) 2,936 8.0 -25.9°
Reaches altitude 10° 21:17:49 10° 355° (N) 2,027 7.0 -26.1°
Enters shadow 21:21:33 59° 18° (NNE) 742 4.0 -26.5°
